This demonstration page uses our WeatherBlox Daily Observations layout. Learn more.

Hourly Observations for June 20, 2016

Temp ( °F °C ) Dew Point ( °F °C ) Humidity (%) Winds ( mph kmh ) Pressure ( in mb ) Visibility ( mi km ) Precip ( " mm )
12:15 am 00:15 Clear 78 25.3 66 19.1 69 69 S 9 15 29.97 1015 10 16.09344 0 0
12:35 am 00:35 Clear 77 25.1 66 19.1 69 69 S 9 15 29.97 1015 10 16.09344 0 0
12:55 am 00:55 Clear 77 25 67 19.2 70 70 S 8 13 30 1016 10 16.09344 0 0
1:15 am 01:15 Clear 76 24.6 67 19.2 72 72 S 9 15 30 1016 10 16.09344 0 0
1:35 am 01:35 Clear 76 24.5 67 19.3 73 73 S 9 15 30 1016 10 16.09344 0 0
1:55 am 01:55 Clear 76 24.3 67 19.5 75 75 SSW 8 13 30.03 1017 10 16.09344 0 0
2:15 am 02:15 Clear 75 24.1 67 19.5 76 76 S 7 11 30.03 1017 10 16.09344 0 0
2:35 am 02:35 Clear 75 23.8 67 19.6 77 77 SSW 8 13 30.03 1017 10 16.09344 0 0
2:55 am 02:55 Clear 75 23.7 67 19.7 78 78 SSW 8 13 30.03 1017 10 16.09344 0 0
3:15 am 03:15 Clear 74 23.5 68 19.8 80 80 S 7 11 30.03 1017 10 16.09344 0 0
3:35 am 03:35 Clear 74 23.2 68 19.8 81 81 SSW 7 11 30.03 1017 10 16.09344 0 0
3:55 am 03:55 Clear 73 23 68 19.8 82 82 SSW 7 11 30.03 1017 10 16.09344 0 0
4:15 am 04:15 Clear 73 22.7 68 20 85 85 SSW 7 11 30.03 1017 10 16.09344 0 0
4:35 am 04:35 Clear 73 22.5 68 19.8 85 85 SW 3 6 30.03 1017 10 16.09344 0 0
4:55 am 04:55 Clear 72 22 67 19.7 87 87 Calm 30.03 1017 10 16.09344 0 0
5:15 am 05:15 Clear 73 22.5 67 19.7 84 84 Calm 30.03 1017 10 16.09344 0 0
5:35 am 05:35 Clear 69 20.8 66 19.1 90 90 Calm 30.03 1017 10 16.09344 0 0
5:55 am 05:55 Clear 69 20.8 66 19.1 90 90 SSE 3 6 30.03 1017 10 16.09344 0 0
6:15 am 06:15 Sunny 69 20.8 67 19.2 91 91 SSE 5 7 30.03 1017 7 11.265408 0 0
6:35 am 06:35 Sunny 70 21.2 67 19.5 90 90 Calm 30.03 1017 7 11.265408 0 0
6:55 am 06:55 Sunny 70 21.3 67 19.7 91 91 Calm 30.03 1017 7 11.265408 0 0
7:15 am 07:15 Sunny with Mist and Fog 71 21.5 68 20.2 92 92 Calm 30.03 1017 5 8.04672 0 0
7:35 am 07:35 Sunny 72 22.2 69 20.6 91 91 NNE 3 6 30.06 1018 7 11.265408 0 0
7:55 am 07:55 Sunny 73 22.6 69 20.6 89 89 NE 3 6 30.06 1018 7 11.265408 0 0
8:15 am 08:15 Sunny 74 23.5 69 20.6 84 84 Calm 30.06 1018 10 16.09344 0 0
8:35 am 08:35 Sunny 76 24.2 69 20.5 80 80 S 5 7 30.06 1018 10 16.09344 0 0
8:55 am 08:55 Sunny 76 24.6 69 20.4 78 78 Calm 30.09 1019 10 16.09344 0 0
9:15 am 09:15 Sunny 77 25.2 69 20.5 75 75 Calm 30.06 1018 10 16.09344 0 0
9:35 am 09:35 Sunny 78 25.8 70 20.9 74 74 NNE 5 7 30.06 1018 10 16.09344 0 0
9:55 am 09:55 Mostly Cloudy 78 25.5 70 21 76 76 NNE 8 13 30.06 1018 10 16.09344 0 0
10:15 am 10:15 Cloudy 78 25.7 70 21.2 76 76 NNE 10 17 30.06 1018 10 16.09344 0 0
10:35 am 10:35 Cloudy 78 25.8 70 21 75 75 NE 10 17 30.06 1018 10 16.09344 0 0
10:55 am 10:55 Mostly Cloudy 79 26 70 21.1 74 74 NE 15 24 30.09 1019 10 16.09344 0 0
11:15 am 11:15 Mostly Cloudy 79 26 69 20.8 73 73 NE 15 24 30.09 1019 10 16.09344 0 0
11:35 am 11:35 Partly Cloudy 79 26.3 69 20.3 70 70 ENE 17 28 30.09 1019 10 16.09344 0 0
11:55 am 11:55 Partly Cloudy 81 27.2 68 19.8 64 64 NE 16 26 30.09 1019 10 16.09344 0 0
12:15 pm 12:15 Sunny 81 27.4 66 18.8 59 59 NE 17 28 30.09 1019 10 16.09344 0 0
12:35 pm 12:35 Sunny 81 27.2 64 17.6 56 56 ENE 16 26 30.09 1019 10 16.09344 0 0
12:55 pm 12:55 Sunny 81 27.3 63 17.4 55 55 NE 17 28 30.09 1019 10 16.09344 0 0
1:15 pm 13:15 Sunny 81 27.4 63 17.2 54 54 NE 16 26 30.09 1019 10 16.09344 0 0
1:35 pm 13:35 Sunny 82 27.7 63 17.1 52 52 NE 16 26 30.09 1019 10 16.09344 0 0
1:55 pm 13:55 Sunny 82 28 63 17 51 51 NE 18 30 30.09 1019 10 16.09344 0 0
2:15 pm 14:15 Sunny 83 28.1 61 16.1 48 48 NE 18 30 30.09 1019 10 16.09344 0 0
2:35 pm 14:35 Sunny 82 28 61 16.1 48 48 NE 16 26 30.09 1019 10 16.09344 0 0
2:55 pm 14:55 Sunny 82 28 61 16 48 48 NE 15 24 30.09 1019 10 16.09344 0 0
3:15 pm 15:15 Sunny 82 28 62 16.5 50 50 NE 15 24 30.09 1019 10 16.09344 0 0
3:35 pm 15:35 Sunny 80 26.8 61 16 52 52 NNE 14 22 30.09 1019 10 16.09344 0 0
3:55 pm 15:55 Sunny with Thunderstorms 79 26.3 61 16.3 54 54 NNE 14 22 30.09 1019 10 16.09344 0 0
4:15 pm 16:15 Sunny 78 25.8 61 16 55 55 ENE 12 19 30.06 1018 10 16.09344 0 0
4:35 pm 16:35 Sunny 78 25.6 63 17 59 59 NNE 10 17 30.09 1019 10 16.09344 0 0
4:55 pm 16:55 Sunny 78 25.6 63 17.4 61 61 NNE 9 15 30.09 1019 10 16.09344 0 0
5:15 pm 17:15 Sunny 77 25 64 17.6 64 64 NE 6 9 30.06 1018 10 16.09344 0 0
5:35 pm 17:35 Partly Cloudy with Light Rain 76 24.3 64 17.7 67 67 E 8 13 30.09 1019 10 16.09344 0 0
5:55 pm 17:55 Partly Cloudy with Rain 74 23.4 64 17.7 70 70 SE 20 31 30.03 1017 10 16.09344 0 0
6:15 pm 18:15 Partly Cloudy with Light Rain 75 23.7 62 16.9 66 66 ENE 13 20 30.06 1018 10 16.09344 0 0
6:35 pm 18:35 Sunny 78 25.6 65 18.4 65 65 NE 12 19 30.03 1017 10 16.09344 0 0
6:55 pm 18:55 Sunny 78 25.8 63 17 58 58 ENE 12 19 30 1016 10 16.09344 0 0
7:15 pm 19:15 Sunny 78 25.7 59 15 52 52 ENE 14 22 30 1016 10 16.09344 0 0
7:35 pm 19:35 Sunny 78 25.6 59 15.2 53 53 ENE 10 17 30 1016 10 16.09344 0 0
7:55 pm 19:55 Sunny 77 25.1 58 14.7 53 53 ENE 10 17 30 1016 10 16.09344 0 0
8:15 pm 20:15 Sunny 76 24.2 58 14.4 54 54 ENE 14 22 30.03 1017 10 16.09344 0 0
8:35 pm 20:35 Sunny 74 23.4 57 13.8 55 55 ENE 9 15 30.03 1017 10 16.09344 0 0
8:55 pm 20:55 Sunny 73 22.7 57 13.8 57 57 ENE 8 13 30.03 1017 10 16.09344 0 0
9:15 pm 21:15 Clear 72 22.1 57 13.8 59 59 ENE 8 13 30.06 1018 10 16.09344 0 0
9:35 pm 21:35 Clear 72 22 56 13.1 57 57 E 8 13 30.06 1018 10 16.09344 0 0
9:55 pm 21:55 Clear 69 20.7 57 14 66 66 ENE 7 11 30.09 1019 10 16.09344 0 0
10:15 pm 22:15 Clear 69 20.8 57 13.7 64 64 E 8 13 30.09 1019 10 16.09344 0 0
10:35 pm 22:35 Clear 69 20.8 56 13.6 64 64 E 8 13 30.09 1019 10 16.09344 0 0
10:55 pm 22:55 Clear 69 20.6 57 13.7 65 65 E 8 13 30.09 1019 10 16.09344 0 0
11:15 pm 23:15 Clear 67 19.7 57 13.8 69 69 NE 6 9 30.12 1020 10 16.09344 0 0
11:35 pm 23:35 Clear 66 19.1 57 14 72 72 ENE 6 9 30.12 1020 10 16.09344 0 0
11:55 pm 23:55 Clear 66 19 56 13.6 71 71 ENE 7 11 30.12 1020 10 16.09344 0 0

Powered by AerisWeather